Lid_Strength_Index
-1 -1 -1 -1 -1 -0 1 4 9 0 0 9 9 11 8 6 8 6 8 8 9 9 7 8 8 8 7 5 5 7 6 7 10 8 6 5 6 7 7 11 12 10 10 10
-1 -1 -1 -1 -1 -0 1 5 5 0 1 12 10 7 7 6 7 8 8 9 8 7 8 10 7 7 5 5 5 6 6 8 11 10 8 6 8 7 7 7 8 10 12 10
-1 -1 -1 -1 -1 -0 0 5 10 5 5 6 9 9 8 8 6 6 7 8 8 9 9 7 8 7 5 5 5 5 5 7 9 11 10 8 9 8 7 8 11 10 10 9
-1 -1 -1 -1 -1 -1 1 4 7 5 10 8 7 8 8 9 8 6 5 7 8 9 9 8 8 7 6 5 5 5 6 9 8 8 7 7 8 8 8 8 8 10 9 8
-1 -1 -1 -1 -1 -1 2 7 6 4 7 6 7 8 9 9 8 7 8 8 8 8 9 8 9 7 7 7 5 6 6 10 8 9 7 7 8 8 7 7 8 8 8 8
-1 -1 -1 -1 -1 -0 3 2 2 5 8 7 8 9 8 8 6 6 6 6 7 9 8 8 7 6 6 6 6 7 7 8 10 11 8 8 10 8 8 7 7 7 9 7
-1 -1 -1 -1 -1 0 1 1 2 7 9 9 8 7 6 8 7 8 6 5 6 6 5 5 5 6 6 5 5 5 8 9 8 10 9 14 8 5 6 7 6 6 6 5
-1 -1 -1 -1 -1 -1 1 0 3 6 9 7 7 6 7 6 6 7 6 5 4 4 6 9 9 9 8 7 6 6 6 8 10 12 12 9 8 7 7 7 8 5 6 5
-1 -1 -1 -1 -1 -1 -0 0 1 3 8 7 5 7 6 8 8 7 6 3 2 5 8 10 15 14 10 10 8 6 6 7 9 10 13 13 8 6 4 5 9 5 5 5
-1 -1 -1 -1 -1 -1 -0 0 -0 3 7 4 4 8 8 6 7 8 6 5 5 4 8 14 14 13 8 12 11 10 10 10 11 10 12 9 6 5 4 10 8 4 4 4
-1 -1 -1 -1 -1 -1 -0 1 -1 2 5 4 3 4 7 6 7 10 6 6 6 7 9 12 12 12 10 10 8 9 10 11 11 10 11 12 5 5 8 5 4 4 4 4
-1 -1 -1 -1 -1 -1 -1 2 -1 -1 4 4 1 1 2 2 4 6 6 7 8 6 7 7 9 12 10 12 13 7 10 8 9 8 9 5 4 4 3 3 4 4 3 3
-1 -1 -1 -1 -1 -1 -1 1 0 1 4 4 3 4 2 0 1 1 7 6 5 5 4 7 7 10 9 12 11 10 7 5 8 8 6 6 4 3 3 3 3 3 3 3
-1 -1 -1 -1 -1 -1 -1 1 -0 1 3 7 5 0 2 0 0 1 1 3 2 3 4 7 8 9 7 10 9 9 8 7 7 7 6 5 4 4 4 3 3 3 3 3
-0 -0 -0 -1 -1 -1 -1 -0 -1 -1 4 7 5 2 1 1 1 2 1 2 3 4 6 7 8 6 7 8 8 10 8 8 9 8 5 5 5 3 3 4 4 3 3 3
-0 -0 -1 -1 -1 -1 1 4 0 -1 -0 5 8 2 3 2 2 2 3 3 3 4 5 6 5 4 7 10 10 8 7 6 5 6 4 5 4 3 3 4 3 3 3 3
-1 -0 -0 -0 -1 -0 3 4 1 -0 -1 5 8 7 4 3 3 3 3 2 4 4 5 6 6 6 6 8 11 6 6 6 5 3 4 5 4 4 3 3 3 3 2 2
-0 -0 0 -0 -1 -0 2 -0 -1 -1 3 3 9 8 6 3 5 6 4 5 5 5 5 5 6 5 6 10 6 6 5 5 5 4 3 3 3 3 3 3 3 3 3 3
-0 -0 1 -1 1 3 2 -1 -0 -1 3 7 6 10 12 4 6 6 6 5 9 4 7 7 6 7 9 6 6 6 4 5 5 4 3 3 4 4 3 3 3 3 3 3
-0 -0 2 5 2 0 -1 2 4 4 4 4 7 5 10 6 7 8 7 6 9 10 7 5 8 9 5 4 4 4 4 4 3 5 5 4 4 4 4 3 3 3 3 3
1 3 4 1 -1 1 3 6 7 6 8 5 5 6 9 5 10 10 7 10 8 12 9 9 9 9 6 4 4 3 3 3 3 3 3 3 3 3 3 3 3 3 2 3
1 2 1 1 3 4 7 8 6 7 9 6 7 6 6 6 7 10 9 11 9 13 7 10 11 7 5 4 4 3 3 3 3 3 3 3 3 3 3 3 3 2 2 2
-0 3 5 5 5 11 10 12 9 9 6 5 6 8 6 6 7 10 11 12 13 9 13 12 9 7 6 5 4 3 3 3 3 3 3 3 3 2 3 3 2 2 2 2
3 6 11 8 9 8 8 9 9 6 6 6 7 7 8 7 9 9 12 10 11 14 15 14 10 8 7 5 4 5 5 4 4 4 4 3 3 3 3 2 2 2 3 2
5 5 11 9 6 5 5 5 6 5 5 6 6 6 7 9 10 10 11 13 14 13 14 11 10 7 7 6 6 5 6 5 5 4 4 3 3 3 3 3 3 3 3 3
4 5 7 5 6 6 5 5 6 4 4 4 5 8 10 11 11 12 13 14 14 13 12 8 8 7 8 7 6 6 6 6 5 5 4 4 4 4 4 3 3 3 3 3
5 6 4 5 5 6 5 5 5 3 5 8 7 11 12 9 12 13 11 13 13 12 8 6 6 6 6 6 6 7 7 7 6 5 5 4 3 3 3 4 3 3 2 2